Weather History for KDYR - March, 2013

Change the Weather History Date:

Saturday, March 9, 2013

  Actual Average Record
Temperature  
Mean Temperature 58 °F -  
Max Temperature 69 °F 53 °F 77 °F (2009)
Min Temperature 46 °F 36 °F 28 °F (2001)
Degree Days  
Heating Degree Days 8    
Growing Degree Days 8 (Base 50)    
Moisture  
Dew Point 30 °F    
Average Humidity 37    
Maximum Humidity 50    
Minimum Humidity 27    
Precipitation  
Precipitation 0.00 in - - ()
Sea Level Pressure  
Sea Level Pressure 30.08 in    
Wind  
Wind Speed 8 mph (SE)    
Max Wind Speed 14 mph    
Max Gust Speed 22 mph    
Visibility 10 miles    
Events      
Averages and records for this station are not official NWS values.
T = Trace of Precipitation, MM = Missing Value Source: NWS Daily Summary

Daily Weather History Graph

Daily Weather History Graph

Search for Another Location

Airport or City:

Trip Planner

Search our weather history database for the weather conditions in past years. The results will help you decide how hot, cold, wet, or windy it might be!

Date:

Astronomy

Mar. 09, 2013 Rise Set
Actual Time 6:16 AM CST 6:00 PM CST
Civil Twilight 5:50 AM CST 6:25 PM CST
Nautical Twilight 5:21 AM CST 6:55 PM CST
Astronomical Twilight 4:51 AM CST 7:25 PM CST
Moon 4:37 AM CST (3/9) 4:04 PM CST (3/9)
Length of Visible Light 12h 34m
Length of Day
11h 43m
Waning Crescent, 5% of the Moon is Illuminated
Mar 9
Waning Crescent
Mar 11
New
Mar 19
First Quarter
Mar 27
Full
Apr 2
Last Quarter

Hourly Weather History & Observations

Time (CST) Temp. Windchill Dew Point Humidity Pressure Visibility Wind Dir Wind Speed Gust Speed Precip Events Conditions
12:15 AM 48.2 °F - 24.8 °F 40% 30.22 in 10.0 mi East 6.9 mph - N/A   Clear
12:35 AM 48.2 °F - 24.8 °F 40% 30.21 in 10.0 mi East 6.9 mph - N/A   Clear
12:55 AM 48.2 °F - 24.8 °F 40% 30.20 in 10.0 mi East 9.2 mph - N/A   Clear
1:15 AM 48.2 °F - 24.8 °F 40% 30.20 in 10.0 mi East 9.2 mph - N/A   Clear
1:35 AM 48.2 °F - 24.8 °F 40% 30.19 in 10.0 mi East 9.2 mph - N/A   Clear
1:55 AM 48.2 °F - 24.8 °F 40% 30.18 in 10.0 mi ESE 9.2 mph - N/A   Clear
2:15 AM 48.2 °F - 24.8 °F 40% 30.17 in 10.0 mi ESE 9.2 mph - N/A   Clear
2:35 AM 48.2 °F - 24.8 °F 40% 30.17 in 10.0 mi ESE 8.1 mph - N/A   Clear
2:55 AM 48.2 °F - 24.8 °F 40% 30.16 in 10.0 mi East 6.9 mph - N/A   Partly Cloudy
3:15 AM 48.2 °F - 24.8 °F 40% 30.16 in 10.0 mi ESE 6.9 mph - N/A   Mostly Cloudy
3:35 AM 48.2 °F - 24.8 °F 40% 30.17 in 10.0 mi SE 6.9 mph - N/A   Overcast
3:55 AM 48.2 °F - 24.8 °F 40% 30.15 in 10.0 mi East 8.1 mph - N/A   Overcast
4:15 AM 48.2 °F - 24.8 °F 40% 30.14 in 10.0 mi ESE 8.1 mph - N/A   Overcast
4:35 AM 48.2 °F - 24.8 °F 40% 30.16 in 10.0 mi East 4.6 mph - N/A   Overcast
4:55 AM 48.2 °F - 24.8 °F 40% 30.17 in 10.0 mi East 3.5 mph - N/A   Overcast
5:15 AM 46.4 °F 44.3 °F 26.6 °F 46% 30.17 in 10.0 mi East 4.6 mph - N/A   Overcast
5:35 AM 46.4 °F 45.2 °F 26.6 °F 46% 30.17 in 10.0 mi NE 3.5 mph - N/A   Overcast
5:55 AM 46.4 °F 44.3 °F 26.6 °F 46% 30.17 in 10.0 mi East 4.6 mph - N/A   Overcast
6:15 AM 46.4 °F 43.5 °F 26.6 °F 46% 30.17 in 10.0 mi East 5.8 mph - N/A   Overcast
6:35 AM 46.4 °F 44.3 °F 26.6 °F 46% 30.18 in 10.0 mi East 4.6 mph - N/A   Overcast
6:55 AM 46.4 °F 44.3 °F 26.6 °F 46% 30.18 in 10.0 mi East 4.6 mph - N/A   Overcast
7:15 AM 46.4 °F 43.5 °F 26.6 °F 46% 30.18 in 10.0 mi East 5.8 mph - N/A   Overcast
7:35 AM 46.4 °F 42.4 °F 26.6 °F 46% 30.19 in 10.0 mi ESE 8.1 mph - N/A   Overcast
7:55 AM 46.4 °F 42.4 °F 28.4 °F 50% 30.19 in 10.0 mi SE 8.1 mph - N/A   Overcast
8:15 AM 48.2 °F - 28.4 °F 46% 30.18 in 10.0 mi SE 9.2 mph - N/A   Overcast
8:35 AM 50.0 °F - 28.4 °F 43% 30.17 in 10.0 mi SE 9.2 mph - N/A   Overcast
8:55 AM 51.8 °F - 28.4 °F 41% 30.16 in 10.0 mi SE 11.5 mph - N/A   Mostly Cloudy
9:15 AM 51.8 °F - 28.4 °F 41% 30.16 in 10.0 mi SE 11.5 mph - N/A   Mostly Cloudy
9:35 AM 53.6 °F - 30.2 °F 41% 30.16 in 10.0 mi SSE 5.8 mph - N/A   Overcast
9:55 AM 57.2 °F - 30.2 °F 36% 30.15 in 10.0 mi SSE 13.8 mph 18.4 mph N/A   Scattered Clouds
10:15 AM 59.0 °F - 32.0 °F 36% 30.14 in 10.0 mi SSE 8.1 mph 18.4 mph N/A   Clear
10:35 AM 60.8 °F - 30.2 °F 31% 30.13 in 10.0 mi SSE 11.5 mph 21.9 mph N/A   Clear
10:55 AM 62.6 °F - 32.0 °F 32% 30.13 in 10.0 mi SSE 13.8 mph 21.9 mph N/A   Clear
11:15 AM 62.6 °F - 33.8 °F 34% 30.13 in 10.0 mi South 9.2 mph - N/A   Clear
11:35 AM 62.6 °F - 33.8 °F 34% 30.12 in 10.0 mi South 9.2 mph - N/A   Clear
11:55 AM 64.4 °F - 33.8 °F 32% 30.11 in 10.0 mi SSE 9.2 mph 16.1 mph N/A   Clear
12:15 PM 64.4 °F - 33.8 °F 32% 30.09 in 10.0 mi South 11.5 mph 17.3 mph N/A   Clear
12:35 PM 66.2 °F - 33.8 °F 30% 30.09 in 10.0 mi South 12.7 mph 18.4 mph N/A   Clear
12:55 PM 66.2 °F - 33.8 °F 30% 30.08 in 10.0 mi South 13.8 mph 19.6 mph N/A   Clear
1:15 PM 66.2 °F - 33.8 °F 30% 30.06 in 10.0 mi South 12.7 mph 17.3 mph N/A   Partly Cloudy
1:35 PM 66.2 °F - 33.8 °F 30% 30.05 in 10.0 mi South 10.4 mph 19.6 mph N/A   Partly Cloudy
1:55 PM 69.8 °F - 33.8 °F 27% 30.04 in 10.0 mi South 9.2 mph 20.7 mph N/A   Clear
2:15 PM 66.2 °F - 33.8 °F 30% 30.03 in 10.0 mi South 9.2 mph 17.3 mph N/A   Clear
2:35 PM 66.2 °F - 33.8 °F 30% 30.03 in 10.0 mi South 9.2 mph 17.3 mph N/A   Clear
2:55 PM 68.0 °F - 33.8 °F 28% 30.01 in 10.0 mi SSE 11.5 mph 20.7 mph N/A   Clear
3:15 PM 68.0 °F - 33.8 °F 28% 30.01 in 10.0 mi SSE 12.7 mph 18.4 mph N/A   Clear
3:35 PM 68.0 °F - 33.8 °F 28% 30.00 in 10.0 mi SE 10.4 mph 20.7 mph N/A   Clear
3:55 PM 68.0 °F - 35.6 °F 30% 30.00 in 10.0 mi SSE 12.7 mph 16.1 mph N/A   Clear
4:15 PM 69.8 °F - 33.8 °F 27% 29.99 in 10.0 mi SSE 10.4 mph 18.4 mph N/A   Clear
4:35 PM 66.2 °F - 32.0 °F 28% 29.99 in 10.0 mi South 8.1 mph 18.4 mph N/A   Clear
4:55 PM 66.2 °F - 33.8 °F 30% 29.99 in 10.0 mi South 6.9 mph - N/A   Mostly Cloudy
5:15 PM 66.2 °F - 33.8 °F 30% 29.98 in 10.0 mi SSE 5.8 mph - N/A   Mostly Cloudy
5:35 PM 66.2 °F - 33.8 °F 30% 29.99 in 10.0 mi SSE 6.9 mph - N/A   Clear
5:55 PM 64.4 °F - 33.8 °F 32% 29.99 in 10.0 mi SSE 6.9 mph - N/A   Clear
6:15 PM 62.6 °F - 33.8 °F 34% 29.99 in 10.0 mi SE 4.6 mph - N/A   Clear
6:35 PM 62.6 °F - 33.8 °F 34% 29.99 in 10.0 mi SE 5.8 mph - N/A   Clear
6:55 PM 62.6 °F - 33.8 °F 34% 29.99 in 10.0 mi SSE 5.8 mph - N/A   Clear
7:15 PM 60.8 °F - 33.8 °F 36% 29.99 in 10.0 mi SE 6.9 mph - N/A   Clear
7:35 PM 62.6 °F - 33.8 °F 34% 29.98 in 10.0 mi SE 8.1 mph - N/A   Clear
7:55 PM 60.8 °F - 33.8 °F 36% 29.98 in 10.0 mi SSE 8.1 mph - N/A   Clear
8:15 PM 62.6 °F - 32.0 °F 32% 29.97 in 10.0 mi SSE 5.8 mph - N/A   Clear
8:35 PM 60.8 °F - 32.0 °F 34% 29.97 in 10.0 mi SE 8.1 mph - N/A   Clear
8:55 PM 59.0 °F - 32.0 °F 36% 29.97 in 10.0 mi SSE 4.6 mph - N/A   Clear
9:15 PM 60.8 °F - 30.2 °F 31% 29.98 in 10.0 mi SE 3.5 mph - N/A   Clear
9:35 PM 57.2 °F - 30.2 °F 36% 29.98 in 10.0 mi ESE 6.9 mph - N/A   Clear
9:55 PM 57.2 °F - 32.0 °F 38% 29.96 in 10.0 mi ESE 8.1 mph - N/A   Clear
10:15 PM 59.0 °F - 32.0 °F 36% 29.96 in 10.0 mi SE 8.1 mph - N/A   Clear
10:35 PM 57.2 °F - 32.0 °F 38% 29.96 in 10.0 mi SE 8.1 mph - N/A   Clear
10:55 PM 57.2 °F - 32.0 °F 38% 29.95 in 10.0 mi SE 9.2 mph - N/A   Clear
11:15 PM 57.2 °F - 33.8 °F 41% 29.95 in 10.0 mi SE 5.8 mph - N/A   Clear
11:35 PM 57.2 °F - 33.8 °F 41% 29.95 in 10.0 mi SSE 6.9 mph - N/A   Clear
11:55 PM 57.2 °F - 33.8 °F 41% 29.94 in 10.0 mi SSE 10.4 mph - N/A   Clear